Home   Weather   Temecula   Past weeks
Flag for USA

Past Weather in Temecula, California, USA — Yesterday and Last 2 Weeks

Now
45 °F

Fog.


Feels Like: 45 °F
Forecast: 73 / 47 °F
Wind: No wind

Location: Oceanside - Camp Pendleton

Current Time: Dec 13, 2019 at 5:31:08 am

Latest Report: Dec 13, 2019 at 4:55 am


Visibility: 6 mi

Pressure: 30.15 "Hg

Humidity: 90%

Dew Point: 42 °F

Location of TemeculaLocation

Past Weather in Temecula — Graph

°F

Temecula Temperature Yesterday

Maximum temperature yesterday: 69 °F (at 11:55 am)
Minimum temperature yesterday: 44 °F (at 4:58 am)
Average temperature yesterday: 53 °F

High & Low Weather Summary for the Past Weeks

 TemperatureHumidityPressure
High73 °F (Dec 6, 11:55 am)93% (Dec 4, 11:56 pm)30.24 "Hg (Dec 4, 11:56 pm)
Low39 °F (Dec 11, 6:55 am)35% (Dec 2, 10:55 am)29.93 "Hg (Dec 4, 3:55 pm)
Average57 °F80%30.09 "Hg
* Reported Dec 2 6:55 am — Dec 13 4:29 am, Temecula. Weather by CustomWeather, © 2019

Note: Actual official high and low records may vary slightly from our data, if they occured in-between our weather recording intervals... More about our weather records

Temecula Weather History for the Previous 24 Hours

Scroll right to see more
 ConditionsComfort  
Time TempWeatherWind HumidityBarometerVisibility
4:29 am
Fri, Dec 13
45 °FFog.No wind90%30.15 "Hg2 mi
3:55 am46 °FFog.No wind89%30.15 "Hg6 mi
2:55 am47 °FClear.No wind86%30.16 "Hg7 mi
1:55 am47 °FFog.No wind90%30.15 "Hg6 mi
12:55 am46 °FFog.No wind89%30.14 "Hg5 mi
12:11 am48 °FClear.No wind86%30.15 "Hg3 mi
11:55 pm
Thu, Dec 12
47 °FClear.No wind86%30.15 "Hg6 mi
10:55 pm49 °FClear.No wind90%30.16 "Hg7 mi
9:55 pm50 °FClear.No wind86%30.17 "Hg7 mi
8:55 pm52 °FClear.No wind86%30.17 "Hg9 mi
7:55 pm54 °FClear.3 mph86%30.17 "Hg9 mi
6:55 pm54 °FClear.No wind86%30.16 "Hg9 mi
5:55 pm58 °FClear.No wind81%30.15 "Hg10 mi
4:55 pm61 °FPassing clouds.6 mph78%30.14 "Hg10 mi
3:55 pm65 °FScattered clouds.6 mph68%30.14 "Hg10 mi
2:55 pm67 °FScattered clouds.7 mph59%30.14 "Hg10 mi
1:55 pm67 °FPartly sunny.8 mph59%30.14 "Hg10 mi
12:55 pm68 °FPartly sunny.7 mph57%30.16 "Hg10 mi
11:55 am69 °FPartly sunny.5 mph45%30.19 "Hg10 mi
10:55 am66 °FPartly sunny.No wind43%30.22 "Hg10 mi
9:55 am59 °FPartly sunny.No wind67%30.24 "Hg10 mi
8:55 am54 °FScattered clouds.No wind77%30.24 "Hg10 mi
7:55 am47 °FScattered clouds.No wind86%30.23 "Hg7 mi
6:55 am46 °FScattered clouds.3 mph86%30.22 "Hg7 mi
5:55 am44 °FFog.No wind89%30.20 "Hg6 mi
5:38 am44 °FFog.No wind85%30.20 "Hg2 mi
5:09 am44 °FFog.No wind89%30.20 "Hg3 mi
Weather by CustomWeather, © 2019

See weather overview

Advertising